Weather History for KDFW - June, 2012

Change the Weather History Date:

Monday, June 25, 2012

  Actual Average Record
Temperature  
Mean Temperature 91 °F 83 °F  
Max Temperature 104 °F 93 °F 109 °F (1980)
Min Temperature 77 °F 73 °F 60 °F (1974)
Degree Days  
Heating Degree Days 0 0  
Month to date heating degree days 0 0  
Since 1 June heating degree days 0 0  
Since 1 July heating degree days 1777 2284  
Cooling Degree Days 26 18  
Month to date cooling degree days 460 399  
Year to date cooling degree days 1147 821  
Since 1 June cooling degree days 460 399  
Growing Degree Days 40 (Base 50)    
Moisture  
Dew Point 62 °F    
Average Humidity 45    
Maximum Humidity 67    
Minimum Humidity 23    
Precipitation  
Precipitation 0.00 in 0.11 in 2.82 in (1915)
Month to date precipitation 2.82 3.28  
Year to date precipitation 22.52 19.53  
Sea Level Pressure  
Sea Level Pressure 29.85 in    
Wind  
Wind Speed 2 mph (WSW)    
Max Wind Speed 12 mph    
Max Gust Speed 15 mph    
Visibility 10 miles    
Events      
T = Trace of Precipitation, MM = Missing Value Source: NWS Daily Summary

Daily Weather History Graph

Daily Weather History Graph

Search for Another Location

Airport or City:

Trip Planner

Search our weather history database for the weather conditions in past years. The results will help you decide how hot, cold, wet, or windy it might be!

Date:

Astronomy

Jun. 25, 2012 Rise Set
Actual Time 6:21 AM CDT 8:40 PM CDT
Civil Twilight 5:52 AM CDT 9:08 PM CDT
Nautical Twilight 5:17 AM CDT 9:44 PM CDT
Astronomical Twilight 4:39 AM CDT 10:22 PM CDT
Moon 12:12 PM CDT (6/25) No Moon Set
Length of Visible Light 15h 16m
Length of Day
14h 18m
Waxing Crescent, 34% of the Moon is Illuminated
Jun 25
Waxing Crescent
Jun 26
First Quarter
Jul 3
Full
Jul 10
Last Quarter
Jul 18
New

Hourly Weather History & Observations

Time (CDT) Temp. Heat Index Dew Point Humidity Pressure Visibility Wind Dir Wind Speed Gust Speed Precip Events Conditions
12:53 AM 82.9 °F 83.7 °F 62.1 °F 49% 29.86 in 10.0 mi SSW 6.9 mph - N/A   Clear
1:53 AM 81.0 °F 82.2 °F 63.0 °F 54% 29.86 in 10.0 mi Calm Calm - N/A   Clear
2:53 AM 79.0 °F - 63.0 °F 58% 29.86 in 10.0 mi Calm Calm - N/A   Clear
3:53 AM 80.1 °F 81.5 °F 63.0 °F 56% 29.86 in 10.0 mi Calm Calm - N/A   Clear
4:53 AM 81.0 °F 82.5 °F 64.0 °F 56% 29.87 in 10.0 mi Calm Calm - N/A   Clear
5:53 AM 78.1 °F - 64.0 °F 62% 29.88 in 10.0 mi Calm Calm - N/A   Clear
6:53 AM 79.0 °F - 66.0 °F 64% 29.90 in 10.0 mi Calm Calm - N/A   Clear
7:53 AM 82.0 °F 84.9 °F 68.0 °F 62% 29.91 in 10.0 mi Calm Calm - N/A   Clear
8:53 AM 88.0 °F 89.3 °F 64.0 °F 45% 29.91 in 10.0 mi WSW 3.5 mph - N/A   Clear
9:53 AM 91.0 °F 93.0 °F 64.9 °F 42% 29.91 in 10.0 mi WSW 5.8 mph - N/A   Clear
10:53 AM 93.9 °F 97.0 °F 66.0 °F 40% 29.90 in 10.0 mi WSW 4.6 mph - N/A   Partly Cloudy
11:53 AM 95.0 °F 95.6 °F 62.1 °F 33% 29.89 in 10.0 mi Calm Calm - N/A   Partly Cloudy
12:53 PM 97.0 °F 96.5 °F 59.0 °F 28% 29.88 in 10.0 mi WSW 3.5 mph - N/A   Clear
1:53 PM 100.0 °F 101.8 °F 62.1 °F 29% 29.86 in 10.0 mi Variable 3.5 mph - N/A   Clear
2:53 PM 100.9 °F 101.6 °F 60.1 °F 26% 29.83 in 10.0 mi NE 5.8 mph - N/A   Clear
3:53 PM 102.0 °F 102.2 °F 59.0 °F 24% 29.81 in 10.0 mi NE 6.9 mph - N/A   Clear
4:53 PM 102.0 °F 101.6 °F 57.9 °F 23% 29.80 in 10.0 mi Calm Calm - N/A   Clear
5:53 PM 102.9 °F 103.0 °F 57.9 °F 23% 29.78 in 10.0 mi Calm Calm - N/A   Clear
6:53 PM 100.0 °F 99.7 °F 57.9 °F 25% 29.77 in 10.0 mi Calm Calm - N/A   Clear
7:53 PM 100.0 °F 100.7 °F 60.1 °F 27% 29.77 in 10.0 mi Calm Calm - N/A   Clear
8:53 PM 97.0 °F 96.5 °F 59.0 °F 28% 29.77 in 10.0 mi Calm Calm - N/A   Clear
9:53 PM 93.0 °F 92.7 °F 60.1 °F 33% 29.78 in 10.0 mi Calm Calm - N/A   Clear
10:53 PM 91.9 °F 91.5 °F 60.1 °F 34% 29.79 in 10.0 mi Calm Calm - N/A   Clear
11:53 PM 91.9 °F 92.5 °F 62.1 °F 37% 29.78 in 10.0 mi Calm Calm - N/A   Clear